Regional Weather Roundup
Issued by NWS Sterling, VA

Home | Current Version | Previous Version | Text Only | Print | Product List | Glossary On
Versions: 1 2 3 4 5 6 7 8 9 10 11 12 13 14 15 16 17 18 19 20 21 22 23 24 25 26 27 28 29 30 31 32 33 34 35 36 37 38 39 40 41 42 43 44 45 46 47 48 49 50
000
ASUS41 KLWX 242010
RWRLWX

REGIONAL WEATHER ROUNDUP
NATIONAL WEATHER SERVICE BALTIMORE MD/WASHINGTON DC
300 PM EST FRI FEB 24 2017

Note: "FAIR" indicates few or no clouds below 12,000 feet
with no significant weather and/or obstructions to visibility.
 TC=TEMPERATURE CELSIUS

 * =Non NWS site. Station does not report precipitation (e.g. rain,
    snow, etc.), thunder, or fog.

DCZ001-MDZ009-015-VAZ040>042-051-053>054-242100-
WASHINGTON METRO

CITY           SKY/WX    TMP DP  RH WIND       PRES   REMARKS
WASHINGTON NAT PTSUNNY   72  54  53 S15       29.83F
DULLES         PTSUNNY   74  49  41 S14G24    29.81F
ANDREWS AFB    PTSUNNY   73  54  49 S14G22    29.83F
FT BELVOIR     SUNNY     76  53  46 SE9G18    29.83F
QUANTICO       MOSUNNY   61  52  72 S15       29.84F
COLLEGE PARK*  MOSUNNY   73  52  46 S10G18    29.83S
LEESBURG*      MOSUNNY   77  54  44 MISG      29.82S
MANASSAS*        N/A     77  52  41 S10G20    29.82F
GAITHERSBURG*  MOSUNNY   75  52  43 S12       29.86S

$$

MDZ006>007-011-014-242100-
BALTIMORE METRO

CITY           SKY/WX    TMP DP  RH WIND       PRES   REMARKS
BWI AIRPORT    MOSUNNY   72  55  55 SE13G22   29.83F
MD SCIENCE CTR   N/A     72  53  51 MISG      29.84F
MARTIN STATE   MOSUNNY   70  57  64 SE12      29.87S
ANNAPOLIS      SUNNY     67  56  67 SE14      29.85F
FORT MEADE*    PTSUNNY   73  52  46 SE15      29.85S

$$

MDZ012-015-019>023-242100-
MARYLAND EASTERN SHORE

CITY           SKY/WX    TMP DP  RH WIND       PRES   REMARKS
OCEAN CITY     SUNNY     60  55  83 SW6       29.92S
SALISBURY      PTSUNNY   71  58  63 S15G22    29.89S
BAY BRIDGE AP* SUNNY     72  55  56 S15       29.86S
CAMBRIDGE*     PTSUNNY   72  57  60 S8G17     29.87F
EASTON*        PTSUNNY   73  55  53 MISG      29.90F

$$

MDZ017>025-242100-
SOUTHERN MARYLAND

CITY           SKY/WX    TMP DP  RH WIND       PRES   REMARKS
PATUXENT RIVER PTSUNNY   63  56  78 SE12      29.86F
ST INIGOES     SUNNY     72  57  59 SE10      29.86F
LEONARDTOWN*   MOSUNNY   72  54  53 S7        29.87F

$$

MDZ003>005-242100-
NORTH CENTRAL MARYLAND

CITY           SKY/WX    TMP DP  RH WIND       PRES   REMARKS
FREDERICK*     MOSUNNY   77  54  44 SW17G25   29.83F
HAGERSTOWN APT SUNNY     76  50  40 S17       29.77F
WESTMINSTER*   MOSUNNY   79  54  41 S12G18    29.82S

$$

MDZ501>502-242100-
WESTERN MARYLAND

CITY           SKY/WX    TMP DP  RH WIND       PRES   REMARKS
OAKLAND*       SUNNY     70  43  37 S12       29.78F
CUMBERLAND*    MOSUNNY   81  43  26 S14       29.76F

$$

VAZ025>031-242100-
SHENANDOAH VALLEY

CITY           SKY/WX    TMP DP  RH WIND       PRES   REMARKS
WINCHESTER*    SUNNY     73  50  43 S15       29.78F
FRONT ROYAL*   SUNNY     75  52  43 SE10G16   29.77F
LURAY*         MOSUNNY   77  54  44 S7        29.79F
NEW MARKET*    MOSUNNY   77  50  38 S8        29.78S
STAUNTON*      MOSUNNY   73  51  44 S12G21    29.83S
WAYNESBORO*    SUNNY     73  47  40 S17G23    29.83S

$$

WVZ021-048>050-054>055-242100-
EASTERN WEST VIRGINIA PANHANDLE

CITY           SKY/WX    TMP DP  RH WIND       PRES   REMARKS
MARTINSBURG    SUNNY     77  50  38 S12       29.76F
PETERSBURG*    SUNNY     80  49  33 S10       29.74F

$$

VAZ036>039-050-242100-
CENTRAL FOOTHILLS

CITY           SKY/WX    TMP DP  RH WIND       PRES   REMARKS
CHARLOTTESVILL MOSUNNY   77  51  40 SE10      29.81F
CULPEPER*      MOSUNNY   76  52  43 S7        29.82F
ORANGE*        MOSUNNY   73  50  43 SE8G20    29.83F
GORDONSVILLE*  PTSUNNY   75  53  46 S13G20    29.81F
WARRENTON*     MOSUNNY   79  46  30 S13       29.82S

$$

VAZ055>057-242100-
NORTH AND CENTRAL PIEDMONT

CITY           SKY/WX    TMP DP  RH WIND       PRES   REMARKS
FREDERICKSBRG* MOSUNNY   76  54  46 S8        29.82F
STAFFORD*      MOSUNNY   74  52  45 S7        29.87S

$$

NCZ024-NYZ072-PAZ021-071-VAZ022-071-242100-
OTHER REGIONAL OBSERVATIONS

CITY           SKY/WX    TMP DP  RH WIND       PRES   REMARKS
NEW YORK CITY  SUNNY     68  52  56 S5        29.89F
PHILADELPHIA   PTSUNNY   74  54  49 S12       29.86F
PITTSBURGH     MOSUNNY   76  49  38 S16G26    29.67F
ROANOKE        MOSUNNY   75  51  43 S14G20    29.83F
RICHMOND       MOSUNNY   75  56  51 S9        29.85F
RALEIGH        MOSUNNY   79  54  41 S7G16     29.85F

$$

ANZ530>537-242100-
MARINE OBSERVATIONS

STATION/POSITION TIME  TEMP    WIND        PRES
                       AIR SEA DIR/SP/G
                 (UTC) (F)     (DEG/KT/KT) (MB)
THOMAS PT LIGHT  2000   57 45  170/ 10/ 12   N/A
BALT KEY BRIDGE  1948   65     150/ 17/ 18 1010.2F
COVE POINT       1948   52     180/ 12/ 13 1012.0F
LEWISETTA        1948   60 46  130/  9/ 10 1010.8F
SOLOMONS ISLAND  1948   59 47  130/ 13/ 14   N/A
PINEY POINT      1942          140/ 11/ 11   N/A

$$




USA.gov is the U.S. government's official web portal to all federal, state and local government web resources and services.